Regional Weather Roundup
Issued by NWS Newport/Morehead, NC

Home | Current Version | Previous Version | Text Only | Print | Product List | Glossary On
Versions: 1 2 3 4 5 6 7 8 9 10 11 12 13 14 15 16 17 18 19 20 21 22 23 24 25 26 27 28 29 30 31 32 33 34 35 36 37 38 39 40 41 42 43 44 45 46 47 48 49 50
000
ASUS42 KMHX 261422
RWRMHX
WEATHER ROUNDUP FOR EASTERN NORTH CAROLINA
NATIONAL WEATHER SERVICE NEWPORT/MOREHEAD CITY NC
900 AM EST FRI DEC 26 2014

NOTE: "FAIR" INDICATES FEW OR NO CLOUDS BELOW 12,000 FEET
WITH NO SIGNIFICANT WEATHER AND/OR OBSTRUCTIONS TO VISIBILITY

NCZ015>017-031-032-045>047-102-103-261500-
NORTH COAST

CITY           SKY/WX    TMP DP  RH WIND       PRES   REMARKS
EDENTON          N/A     41  38  87 N5        30.36R
ELIZABETH CITY SUNNY     44  38  79 CALM      30.34R
KITTY HAWK     SUNNY     49  45  85 W3        30.33R
MANTEO         SUNNY     46  45  93 CALM      30.33R

$$

NCZ045>047-081-094-103-104-261500-
CENTRAL COAST

CITY           SKY/WX    TMP DP  RH WIND       PRES   REMARKS
FRISCO         SUNNY     50  45  83 N5        30.33R
SWANQUARTER      N/A     46 N/A N/A CALM      30.30S

$$

NCZ095-097-098-100-101-261500-
SOUTHERN COAST

CITY           SKY/WX    TMP DP  RH WIND       PRES   REMARKS
BEAUFORT       SUNNY     48  42  80 CALM      30.34R
CEDAR ISLAND     N/A     52 N/A N/A N1        30.39R
JACKSONVILLE   SUNNY     43  38  82 CALM      30.35R
PINEY ISLAND   SUNNY     53  43  68 CALM      30.33S
WILMINGTON     SUNNY     46  40  79 CALM      30.36R


$$

NCZ011>013-027>030-043-044-078>080-089-090>093-098-261500-
COASTAL PLAIN

CITY           SKY/WX    TMP DP  RH WIND       PRES   REMARKS
AHOSKIE        SUNNY     36  34  92 CALM      30.36R
CLINTON        SUNNY     42  42 100 CALM      30.38R
ELIZABETHTOWN  SUNNY     44  37  75 CALM      30.37R
GOLDSBORO      SUNNY     41  41 100 W1        30.35R
GREENVILLE     SUNNY     41  41 100 CALM      30.37R
HAVELOCK       MOSUNNY   44  40  85 CALM      30.35R
KENANSVILLE    SUNNY     43  42  95 CALM      30.37R
KINSTON        SUNNY     41  41 100 CALM      30.36R
NEW BERN       MOSUNNY   44  41  89 CALM      30.36R
RICHLANDS      SUNNY     43  37  81 CALM      30.37R
ROCKY MOUNT    SUNNY     39  35  86 CALM      30.36R
WASHINGTON     SUNNY     42  37  79 CALM      30.35R
WHITEVILLE     SUNNY     45  40  82 CALM      30.35S

$$

AMZ130-135-150-152-154-156-158-170-250-252-270-ANZ085-086-088-633-658-670-261500-
MARINE OBSERVATIONS

STATION/POSITION TIME  TEMP    WIND        PRES    WAVE   SWELL
                       AIR SEA DIR/SP/G            HT/PER HT/PER
                 (UTC) (F)     (DEG/KT/KT) (MB)    (FT/S) (FT/S)
CHESAPEAKE LIGHT 1400   48      60/  7/  7 1027.9
64 E VA BEACH    1400   51 52   30/  8/  8 1026.5    3/ 8   2/ 8
DUCK             1400   47 51  270/  4/  5 1026.4
2 E DUCK         1400      50                N/A     2/11
10 NE DUCK       1400      50                N/A     2/ 8   2/11
OREGON INLET     1400   51 54  220/  2/  2 1027.0
13E OREGON INLT  1400      50                N/A     3/ 8   2/11
HATTERAS CG      1400   50 55   10/  4/  5 1027.3
DIAMOND BUOY     1400   57                 1026.9    3/ 7
17 S OCRACOKE    NOT AVBL
CAPE LOOKOUT     1400   51      10/  5/  7 1027.1
BEAUFORT LAB     1400   48 54   10/  4/  5 1026.3
30 SE NEW RIVER  1400   55 60   20/  8/ 10 1027.3    3/ 7   3/ 7
5 SE WRIGHTSVLE  NOT AVBL
225 S CAPE HAT   1347   68 71   70/ 10/ 14 1025.2    4/ 6   3/ 6
41 SE CHARLESTON 1400   63 71   50/  4/  8 1025.6    2/ 7   2/ 7

$$



USA.gov is the U.S. government's official web portal to all federal, state and local government web resources and services.